Location: Poughquag
(41.6090°N, 73.6820°W)
Time: 09:29:31
(UTC-04:00)

ACS3 Solar Sail - Pass Details

Date: 24 June 2024
Orbit: 992 x 1023 km, 97.4° (Epoch: 11 July)

Event Time Altitude Azimuth Distance (km) Brightness Sun altitude
Exits shadow 23:41:16 13° 225° (SW) 2,574 6.8 -22.7°
Maximum altitude 23:45:16 22° 270° (W) 2,008 6.6 -22.9°
Drops below altitude 10° 23:50:00 10° 320° (NW) 2,764 8.1 -23.2°
Sets 23:53:07 0° 335° (NNW) 3,717 9.2 -23.3°
